| time (UTC) | temp C | wind direction | speed KPH | gust KPH | rain 1hr cm | rain 24hr cm | rain mn cm | humidity % | barometer mb |
| 20260503010020 | 21 | 236 | 0.0 | 0.0 | 0.00 | 0.00 | 0.00 | 51 | 1021.7 |
| 20260503005517 | 21 | 206 | 0.0 | 1.6 | 0.00 | 0.00 | 0.00 | 49 | 1021.7 |
| 20260503005015 | 21 | 119 | 0.0 | 0.0 | 0.00 | 0.00 | 0.00 | 48 | 1021.7 |
| 20260503004510 | 21 | 147 | 0.0 | 0.0 | 0.00 | 0.00 | 0.00 | 47 | 1021.7 |
| 20260503004009 | 21 | 300 | 0.0 | 0.0 | 0.00 | 0.00 | 0.00 | 46 | 1021.7 |
| 20260503003505 | 21 | 6 | 1.6 | 1.6 | 0.00 | 0.00 | 0.00 | 43 | 1021.7 |
| 20260503003002 | 22 | 2 | 3.2 | 3.2 | 0.00 | 0.00 | 0.00 | 45 | 1021.4 |
| 20260503002459 | 22 | 339 | 1.6 | 3.2 | 0.00 | 0.00 | 0.00 | 44 | 1021.7 |
| 20260503001955 | 22 | 28 | 1.6 | 1.6 | 0.00 | 0.00 | 0.00 | 43 | 1021.4 |
| 20260503001452 | 22 | 52 | 0.0 | 1.6 | 0.00 | 0.00 | 0.00 | 43 | 1021.4 |
| 20260503000950 | 22 | 350 | 3.2 | 3.2 | 0.00 | 0.00 | 0.00 | 42 | 1021.4 |
| 20260503000447 | 22 | 358 | 3.2 | 3.2 | 0.00 | 0.00 | 0.00 | 44 | 1021.7 |
| 20260502235944 | 22 | 344 | 3.2 | 3.2 | 0.00 | 0.00 | 0.00 | 43 | 1021.4 |
| 20260502235440 | 22 | 352 | 6.4 | 8.0 | 0.00 | 0.00 | 0.00 | 43 | 1021.7 |
| 20260502234938 | 22 | 57 | 0.0 | 1.6 | 0.00 | 0.00 | 0.00 | 42 | 1021.7 |
| 20260502234434 | 22 | 56 | 1.6 | 1.6 | 0.00 | 0.00 | 0.00 | 42 | 1021.4 |
| 20260502233932 | 22 | 338 | 4.8 | 4.8 | 0.00 | 0.00 | 0.00 | 41 | 1021.4 |
| 20260502233427 | 22 | 50 | 1.6 | 1.6 | 0.00 | 0.00 | 0.00 | 42 | 1021.4 |
| 20260502232924 | 23 | 340 | 4.8 | 4.8 | 0.00 | 0.00 | 0.00 | 39 | 1021.4 |
| 20260502232421 | 23 | 271 | 0.0 | 0.0 | 0.00 | 0.00 | 0.00 | 43 | 1021.0 |
| 20260502231918 | 23 | 273 | 0.0 | 0.0 | 0.00 | 0.00 | 0.00 | 41 | 1021.4 |
| 20260502231415 | 23 | 316 | 1.6 | 1.6 | 0.00 | 0.00 | 0.00 | 42 | 1021.4 |
| 20260502230913 | 23 | 300 | 1.6 | 1.6 | 0.00 | 0.00 | 0.00 | 41 | 1021.4 |
| 20260502230411 | 23 | 359 | 4.8 | 4.8 | 0.00 | 0.00 | 0.00 | 39 | 1021.4 |
| 20260502225909 | 23 | 345 | 4.8 | 4.8 | 0.00 | 0.00 | 0.00 | 42 | 1021.0 |
| 20260502225404 | 23 | 345 | 1.6 | 1.6 | 0.00 | 0.00 | 0.00 | 40 | 1021.4 |
| 20260502224901 | 23 | 109 | 4.8 | 8.0 | 0.00 | 0.00 | 0.00 | 40 | 1021.4 |
| 20260502224357 | 23 | 353 | 6.4 | 8.0 | 0.00 | 0.00 | 0.00 | 41 | 1021.4 |
| 20260502223855 | 23 | 51 | 1.6 | 3.2 | 0.00 | 0.00 | 0.00 | 42 | 1021.0 |
| 20260502223353 | 23 | 19 | 0.0 | 1.6 | 0.00 | 0.00 | 0.00 | 43 | 1021.0 |
| 20260502222850 | 23 | 0 | 8.0 | 9.7 | 0.00 | 0.00 | 0.00 | 42 | 1021.4 |
| 20260502222348 | 23 | 46 | 0.0 | 0.0 | 0.00 | 0.00 | 0.00 | 42 | 1021.4 |
| 20260502221843 | 23 | 342 | 1.6 | 3.2 | 0.00 | 0.00 | 0.00 | 43 | 1021.4 |
| 20260502221340 | 23 | 355 | 6.4 | 8.0 | 0.00 | 0.00 | 0.00 | 42 | 1021.4 |
| 20260502220837 | 23 | 339 | 1.6 | 1.6 | 0.00 | 0.00 | 0.00 | 43 | 1021.7 |
| 20260502220332 | 23 | 54 | 0.0 | 1.6 | 0.00 | 0.00 | 0.00 | 43 | 1021.7 |
| 20260502215829 | 23 | 358 | 11.3 | 11.3 | 0.00 | 0.00 | 0.00 | 41 | 1021.7 |
| 20260502215327 | 23 | 50 | 0.0 | 1.6 | 0.00 | 0.00 | 0.00 | 40 | 1021.7 |
| 20260502214824 | 23 | 355 | 4.8 | 8.0 | 0.00 | 0.00 | 0.00 | 43 | 1021.7 |
| 20260502214320 | 23 | 266 | 1.6 | 3.2 | 0.00 | 0.00 | 0.00 | 42 | 1021.7 |
| 20260502213818 | 23 | 354 | 11.3 | 12.9 | 0.00 | 0.00 | 0.00 | 41 | 1021.7 |
| 20260502213315 | 23 | 3 | 8.0 | 9.7 | 0.00 | 0.00 | 0.00 | 41 | 1021.7 |
| 20260502212814 | 24 | 90 | 3.2 | 8.0 | 0.00 | 0.00 | 0.00 | 42 | 1021.7 |
| 20260502212312 | 23 | 240 | 0.0 | 1.6 | 0.00 | 0.00 | 0.00 | 42 | 1022.0 |
| 20260502211809 | 23 | 167 | 1.6 | 1.6 | 0.00 | 0.00 | 0.00 | 40 | 1022.0 |
| 20260502211304 | 23 | 301 | 3.2 | 4.8 | 0.00 | 0.00 | 0.00 | 40 | 1022.0 |
| 20260502210802 | 24 | 57 | 4.8 | 4.8 | 0.00 | 0.00 | 0.00 | 40 | 1021.7 |
| 20260502210259 | 23 | 10 | 3.2 | 3.2 | 0.00 | 0.00 | 0.00 | 41 | 1022.4 |
| 20260502205756 | 23 | 24 | 3.2 | 4.8 | 0.00 | 0.00 | 0.00 | 42 | 1022.4 |
| 20260502205251 | 23 | 16 | 8.0 | 9.7 | 0.00 | 0.00 | 0.00 | 41 | 1022.0 |
| 20260502204749 | 23 | 342 | 6.4 | 9.7 | 0.00 | 0.00 | 0.00 | 40 | 1022.4 |
| 20260502204246 | 23 | 43 | 0.0 | 1.6 | 0.00 | 0.00 | 0.00 | 41 | 1022.4 |
| 20260502203744 | 23 | 30 | 4.8 | 4.8 | 0.00 | 0.00 | 0.00 | 42 | 1022.4 |
| 20260502203242 | 23 | 52 | 1.6 | 3.2 | 0.00 | 0.00 | 0.00 | 40 | 1022.7 |
| 20260502202736 | 23 | 342 | 6.4 | 8.0 | 0.00 | 0.00 | 0.00 | 40 | 1022.4 |
| 20260502202234 | 23 | 6 | 4.8 | 9.7 | 0.00 | 0.00 | 0.00 | 43 | 1022.4 |
| 20260502201731 | 23 | 340 | 4.8 | 8.0 | 0.00 | 0.00 | 0.00 | 38 | 1022.4 |
| 20260502201228 | 24 | 94 | 1.6 | 1.6 | 0.00 | 0.00 | 0.00 | 41 | 1022.4 |
| 20260502200724 | 23 | 185 | 0.0 | 1.6 | 0.00 | 0.00 | 0.00 | 41 | 1022.7 |
| 20260502200220 | 24 | 50 | 3.2 | 3.2 | 0.00 | 0.00 | 0.00 | 40 | 1022.7 |
| 20260502195719 | 24 | 39 | 1.6 | 1.6 | 0.00 | 0.00 | 0.00 | 41 | 1022.7 |
| 20260502195215 | 23 | 52 | 0.0 | 1.6 | 0.00 | 0.00 | 0.00 | 44 | 1022.7 |
| 20260502194711 | 23 | 347 | 4.8 | 9.7 | 0.00 | 0.00 | 0.00 | 44 | 1023.1 |
| 20260502194209 | 23 | 15 | 0.0 | 1.6 | 0.00 | 0.00 | 0.00 | 40 | 1022.7 |
| 20260502193704 | 23 | 267 | 0.0 | 0.0 | 0.00 | 0.00 | 0.00 | 43 | 1022.7 |
| 20260502193202 | 23 | 330 | 6.4 | 8.0 | 0.00 | 0.00 | 0.00 | 46 | 1022.7 |
| 20260502192656 | 23 | 46 | 4.8 | 4.8 | 0.00 | 0.00 | 0.00 | 46 | 1022.7 |
| 20260502192155 | 23 | 3 | 0.0 | 1.6 | 0.00 | 0.00 | 0.00 | 50 | 1023.1 |
| 20260502191651 | 23 | 338 | 4.8 | 4.8 | 0.00 | 0.00 | 0.00 | 45 | 1022.7 |
| 20260502191149 | 23 | 338 | 4.8 | 4.8 | 0.00 | 0.00 | 0.00 | 47 | 1022.7 |
| 20260502190646 | 22 | 51 | 0.0 | 1.6 | 0.00 | 0.00 | 0.00 | 45 | 1022.7 |
| 20260502190144 | 23 | 352 | 3.2 | 4.8 | 0.00 | 0.00 | 0.00 | 47 | 1023.1 |
| 20260502185638 | 22 | 98 | 1.6 | 1.6 | 0.00 | 0.00 | 0.00 | 46 | 1023.1 |
| 20260502185135 | 22 | 339 | 4.8 | 8.0 | 0.00 | 0.00 | 0.00 | 48 | 1023.1 |
| 20260502184631 | 23 | 344 | 6.4 | 8.0 | 0.00 | 0.00 | 0.00 | 47 | 1023.1 |
| 20260502184121 | 22 | 357 | 1.6 | 1.6 | 0.00 | 0.00 | 0.00 | 49 | 1023.1 |
| 20260502183618 | 23 | 292 | 1.6 | 1.6 | 0.00 | 0.00 | 0.00 | 50 | 1023.1 |
| 20260502183114 | 22 | 65 | 1.6 | 3.2 | 0.00 | 0.00 | 0.00 | 45 | 1023.4 |
| 20260502182609 | 22 | 345 | 9.7 | 11.3 | 0.00 | 0.00 | 0.00 | 47 | 1023.4 |
| 20260502182105 | 22 | 312 | 3.2 | 3.2 | 0.00 | 0.00 | 0.00 | 49 | 1023.1 |
| 20260502181603 | 22 | 2 | 8.0 | 9.7 | 0.00 | 0.00 | 0.00 | 47 | 1023.4 |
| 20260502181102 | 22 | 282 | 3.2 | 3.2 | 0.00 | 0.00 | 0.00 | 50 | 1023.7 |
| 20260502180559 | 22 | 358 | 8.0 | 9.7 | 0.00 | 0.00 | 0.00 | 50 | 1023.7 |
| 20260502170512 | 21 | 327 | 8.0 | 9.7 | 0.00 | 0.00 | 0.00 | 53 | 1024.4 |
| 20260502163955 | 20 | 324 | 4.8 | 4.8 | 0.00 | 0.00 | 0.00 | 55 | 1024.4 |
| 20260502163451 | 20 | 346 | 4.8 | 4.8 | 0.00 | 0.00 | 0.00 | 56 | 1024.4 |
| 20260502162949 | 20 | 55 | 3.2 | 4.8 | 0.00 | 0.00 | 0.00 | 54 | 1024.7 |
| 20260502162445 | 20 | 319 | 3.2 | 3.2 | 0.00 | 0.00 | 0.00 | 54 | 1024.4 |
| 20260502161942 | 20 | 306 | 4.8 | 4.8 | 0.00 | 0.00 | 0.00 | 55 | 1024.4 |
| 20260502161439 | 20 | 343 | 1.6 | 1.6 | 0.00 | 0.00 | 0.00 | 57 | 1024.7 |
| 20260502160937 | 20 | 2 | 6.4 | 9.7 | 0.00 | 0.00 | 0.00 | 56 | 1024.7 |
| 20260502160435 | 20 | 27 | 4.8 | 4.8 | 0.00 | 0.00 | 0.00 | 57 | 1024.7 |
| 20260502151913 | 18 | 6 | 3.2 | 4.8 | 0.00 | 0.00 | 0.00 | 63 | 1024.4 |
| 20260502151409 | 17 | 359 | 4.8 | 4.8 | 0.00 | 0.00 | 0.00 | 63 | 1024.4 |
| 20260502150907 | 17 | 263 | 3.2 | 3.2 | 0.00 | 0.00 | 0.00 | 64 | 1024.4 |
| 20260502150403 | 17 | 0 | 6.4 | 8.0 | 0.00 | 0.00 | 0.00 | 64 | 1024.4 |
| 20260502130249 | 11 | 312 | 1.6 | 3.2 | 0.00 | 0.00 | 0.00 | 92 | 1023.4 |
| 20260502123735 | 10 | 301 | 1.6 | 1.6 | 0.00 | 0.00 | 0.00 | 96 | 1023.1 |
| 20260502123231 | 10 | 282 | 1.6 | 1.6 | 0.00 | 0.00 | 0.00 | 96 | 1022.7 |
| 20260502122728 | 10 | 292 | 1.6 | 1.6 | 0.00 | 0.00 | 0.00 | 96 | 1022.7 |
| 20260502122224 | 10 | 324 | 1.6 | 1.6 | 0.00 | 0.00 | 0.00 | 96 | 1022.7 |
| 20260502121723 | 10 | 303 | 1.6 | 3.2 | 0.00 | 0.00 | 0.00 | 96 | 1022.7 |
| 20260502121220 | 10 | 313 | 1.6 | 1.6 | 0.00 | 0.00 | 0.00 | 96 | 1022.4 |
| 20260502120716 | 10 | 306 | 1.6 | 1.6 | 0.00 | 0.00 | 0.00 | 96 | 1022.4 |
| 20260502120213 | 10 | 287 | 0.0 | 1.6 | 0.00 | 0.00 | 0.00 | 96 | 1022.4 |
| 20260502115711 | 9 | 279 | 0.0 | 1.6 | 0.00 | 0.00 | 0.00 | 96 | 1022.4 |
| 20260502115208 | 9 | 280 | 1.6 | 1.6 | 0.00 | 0.00 | 0.00 | 96 | 1022.4 |
| 20260502114703 | 9 | 267 | 0.0 | 0.0 | 0.00 | 0.00 | 0.00 | 95 | 1022.0 |
| 20260502114201 | 9 | 278 | 0.0 | 1.6 | 0.00 | 0.00 | 0.00 | 95 | 1022.0 |
| 20260502113658 | 9 | 299 | 0.0 | 1.6 | 0.00 | 0.00 | 0.00 | 95 | 1022.0 |
| 20260502113156 | 9 | 277 | 0.0 | 1.6 | 0.00 | 0.00 | 0.00 | 95 | 1022.0 |
| 20260502112653 | 9 | 262 | 0.0 | 0.0 | 0.00 | 0.00 | 0.00 | 95 | 1021.7 |
| 20260502112151 | 10 | 265 | 0.0 | 0.0 | 0.00 | 0.00 | 0.00 | 94 | 1021.7 |
| 20260502111648 | 10 | 272 | 0.0 | 0.0 | 0.00 | 0.00 | 0.00 | 94 | 1022.0 |
| 20260502111146 | 10 | 275 | 0.0 | 0.0 | 0.00 | 0.00 | 0.00 | 94 | 1021.7 |
| 20260502110643 | 10 | 270 | 0.0 | 0.0 | 0.00 | 0.00 | 0.00 | 94 | 1021.7 |
| 20260502110140 | 10 | 268 | 0.0 | 0.0 | 0.00 | 0.00 | 0.00 | 93 | 1021.7 |
| 20260502105638 | 10 | 265 | 0.0 | 0.0 | 0.00 | 0.00 | 0.00 | 93 | 1022.0 |
| 20260502105135 | 10 | 261 | 0.0 | 0.0 | 0.00 | 0.00 | 0.00 | 93 | 1021.7 |
| 20260502104632 | 10 | 255 | 0.0 | 0.0 | 0.00 | 0.00 | 0.00 | 92 | 1021.7 |
| 20260502104129 | 10 | 261 | 0.0 | 0.0 | 0.00 | 0.00 | 0.00 | 92 | 1021.7 |
| 20260502103627 | 10 | 262 | 0.0 | 0.0 | 0.00 | 0.00 | 0.00 | 91 | 1021.7 |
| 20260502103125 | 10 | 259 | 0.0 | 0.0 | 0.00 | 0.00 | 0.00 | 91 | 1021.4 |
| 20260502102621 | 10 | 308 | 1.6 | 1.6 | 0.00 | 0.00 | 0.00 | 91 | 1021.4 |
| 20260502102118 | 10 | 284 | 0.0 | 0.0 | 0.00 | 0.00 | 0.00 | 90 | 1021.0 |
| 20260502101616 | 10 | 289 | 0.0 | 1.6 | 0.00 | 0.00 | 0.00 | 90 | 1021.0 |
| 20260502101114 | 11 | 322 | 1.6 | 3.2 | 0.00 | 0.00 | 0.00 | 89 | 1020.7 |
| 20260502100612 | 11 | 320 | 3.2 | 3.2 | 0.00 | 0.00 | 0.00 | 89 | 1021.0 |
| 20260502100110 | 11 | 1 | 4.8 | 4.8 | 0.00 | 0.00 | 0.00 | 89 | 1020.7 |
| 20260502091044 | 11 | 343 | 3.2 | 3.2 | 0.00 | 0.00 | 0.00 | 91 | 1020.0 |
| 20260502090541 | 11 | 353 | 4.8 | 4.8 | 0.00 | 0.00 | 0.00 | 91 | 1020.0 |
| 20260502071435 | 11 | 301 | 1.6 | 1.6 | 0.00 | 0.00 | 0.00 | 91 | 1020.0 |
| 20260502070933 | 11 | 333 | 3.2 | 3.2 | 0.00 | 0.00 | 0.00 | 91 | 1019.7 |
| 20260502070431 | 11 | 307 | 1.6 | 1.6 | 0.00 | 0.00 | 0.00 | 91 | 1019.7 |
| 20260502065930 | 11 | 332 | 3.2 | 3.2 | 0.00 | 0.00 | 0.00 | 91 | 1019.7 |
| 20260502065428 | 11 | 347 | 3.2 | 3.2 | 0.00 | 0.00 | 0.00 | 91 | 1019.7 |
| 20260502064926 | 11 | 324 | 3.2 | 3.2 | 0.00 | 0.00 | 0.00 | 92 | 1019.7 |
| 20260502064423 | 11 | 311 | 3.2 | 3.2 | 0.00 | 0.00 | 0.00 | 93 | 1019.7 |
| 20260502063920 | 11 | 1 | 3.2 | 3.2 | 0.00 | 0.00 | 0.00 | 93 | 1019.7 |
| 20260502063418 | 11 | 312 | 3.2 | 3.2 | 0.00 | 0.00 | 0.00 | 93 | 1020.0 |
| 20260502062915 | 11 | 318 | 3.2 | 3.2 | 0.00 | 0.00 | 0.00 | 93 | 1020.3 |
| 20260502062412 | 11 | 331 | 1.6 | 3.2 | 0.00 | 0.00 | 0.00 | 94 | 1020.0 |
| 20260502061911 | 11 | 313 | 1.6 | 3.2 | 0.00 | 0.00 | 0.00 | 94 | 1020.0 |
| 20260502061409 | 11 | 327 | 1.6 | 3.2 | 0.00 | 0.00 | 0.00 | 94 | 1020.0 |
| 20260502060904 | 11 | 297 | 0.0 | 0.0 | 0.00 | 0.00 | 0.00 | 94 | 1020.3 |
| 20260502060359 | 11 | 281 | 0.0 | 1.6 | 0.00 | 0.00 | 0.00 | 94 | 1020.3 |
| 20260502055857 | 11 | 279 | 0.0 | 1.6 | 0.00 | 0.00 | 0.00 | 94 | 1020.3 |
| 20260502055354 | 11 | 279 | 0.0 | 1.6 | 0.00 | 0.00 | 0.00 | 94 | 1020.0 |
| 20260502054854 | 11 | 292 | 1.6 | 3.2 | 0.00 | 0.00 | 0.00 | 93 | 1020.3 |
| 20260502054351 | 11 | 321 | 1.6 | 3.2 | 0.00 | 0.00 | 0.00 | 93 | 1020.0 |
| 20260502053849 | 11 | 312 | 3.2 | 3.2 | 0.00 | 0.00 | 0.00 | 93 | 1020.3 |
| 20260502053346 | 11 | 313 | 1.6 | 1.6 | 0.00 | 0.00 | 0.00 | 93 | 1020.0 |
| 20260502052843 | 11 | 276 | 1.6 | 1.6 | 0.00 | 0.00 | 0.00 | 93 | 1020.0 |
| 20260502052341 | 11 | 317 | 1.6 | 1.6 | 0.00 | 0.00 | 0.00 | 93 | 1019.7 |
| 20260502051839 | 11 | 359 | 1.6 | 3.2 | 0.00 | 0.00 | 0.00 | 93 | 1019.7 |
| 20260502051337 | 12 | 294 | 1.6 | 1.6 | 0.00 | 0.00 | 0.00 | 93 | 1020.0 |
| 20260502050833 | 12 | 359 | 1.6 | 3.2 | 0.00 | 0.00 | 0.00 | 92 | 1019.7 |
| 20260502050330 | 12 | 331 | 1.6 | 3.2 | 0.00 | 0.00 | 0.00 | 92 | 1019.7 |
| 20260502045827 | 12 | 296 | 1.6 | 1.6 | 0.00 | 4.01 | 4.01 | 92 | 1019.7 |
| 20260502045323 | 12 | 302 | 1.6 | 1.6 | 0.00 | 4.01 | 4.01 | 91 | 1019.7 |
| 20260502044821 | 12 | 328 | 1.6 | 1.6 | 0.00 | 4.01 | 4.01 | 91 | 1019.7 |
| 20260502044317 | 12 | 301 | 3.2 | 3.2 | 0.00 | 4.01 | 4.01 | 91 | 1019.7 |
| 20260502043814 | 12 | 323 | 1.6 | 3.2 | 0.00 | 4.01 | 4.01 | 90 | 1019.7 |
| 20260502043312 | 12 | 284 | 1.6 | 1.6 | 0.00 | 4.01 | 4.01 | 90 | 1020.0 |
| 20260502042811 | 12 | 336 | 3.2 | 3.2 | 0.00 | 4.01 | 4.01 | 89 | 1020.0 |
| 20260502042309 | 12 | 342 | 4.8 | 4.8 | 0.00 | 4.01 | 4.01 | 89 | 1019.7 |
| 20260502041806 | 12 | 323 | 3.2 | 4.8 | 0.00 | 4.01 | 4.01 | 88 | 1019.7 |
| 20260502041303 | 12 | 40 | 6.4 | 9.7 | 0.00 | 4.01 | 4.01 | 88 | 1019.7 |
| 20260502040800 | 12 | 343 | 8.0 | 8.0 | 0.00 | 4.01 | 4.01 | 88 | 1019.7 |
| 20260502040257 | 12 | 18 | 8.0 | 9.7 | 0.00 | 4.01 | 4.01 | 88 | 1019.7 |
| 20260502035753 | 12 | 290 | 4.8 | 4.8 | 0.00 | 4.01 | 4.01 | 87 | 1020.0 |
| 20260502035250 | 12 | 349 | 4.8 | 4.8 | 0.00 | 4.01 | 4.01 | 87 | 1019.7 |
| 20260502034747 | 12 | 349 | 6.4 | 8.0 | 0.00 | 4.01 | 4.01 | 86 | 1020.0 |
| 20260502034245 | 12 | 1 | 8.0 | 9.7 | 0.00 | 4.01 | 4.01 | 86 | 1020.0 |
| 20260502033743 | 12 | 8 | 4.8 | 9.7 | 0.00 | 4.01 | 4.01 | 85 | 1019.7 |
| 20260502033241 | 12 | 3 | 6.4 | 8.0 | 0.00 | 4.01 | 4.01 | 86 | 1019.7 |
| 20260502032737 | 12 | 47 | 8.0 | 11.3 | 0.00 | 4.01 | 4.01 | 86 | 1019.7 |
| 20260502032233 | 12 | 353 | 6.4 | 8.0 | 0.00 | 4.01 | 4.01 | 87 | 1019.3 |
| 20260502031732 | 12 | 338 | 3.2 | 4.8 | 0.00 | 4.01 | 4.01 | 88 | 1019.7 |
| 20260502031229 | 12 | 348 | 8.0 | 11.3 | 0.00 | 4.01 | 4.01 | 88 | 1019.7 |
| 20260502030728 | 12 | 13 | 6.4 | 8.0 | 0.00 | 4.01 | 4.01 | 87 | 1019.7 |
| 20260502030225 | 12 | 13 | 1.6 | 3.2 | 0.00 | 4.01 | 4.01 | 86 | 1019.3 |
| 20260502025722 | 12 | 4 | 4.8 | 8.0 | 0.00 | 4.01 | 4.01 | 86 | 1019.3 |
| 20260502025220 | 12 | 19 | 4.8 | 8.0 | 0.00 | 4.01 | 4.01 | 89 | 1019.3 |
| 20260502024717 | 12 | 66 | 8.0 | 11.3 | 0.00 | 4.01 | 4.01 | 89 | 1018.9 |
| 20260502024215 | 12 | 359 | 3.2 | 4.8 | 0.00 | 4.01 | 4.01 | 90 | 1018.9 |
| 20260502023713 | 12 | 332 | 3.2 | 4.8 | 0.00 | 4.01 | 4.01 | 90 | 1018.9 |
| 20260502023210 | 12 | 348 | 6.4 | 8.0 | 0.00 | 4.01 | 4.01 | 90 | 1018.5 |
| 20260502022708 | 12 | 21 | 4.8 | 8.0 | 0.00 | 4.01 | 4.01 | 90 | 1018.5 |
| 20260502022204 | 12 | 317 | 3.2 | 3.2 | 0.00 | 4.01 | 4.01 | 90 | 1018.5 |
| 20260502021701 | 12 | 25 | 0.0 | 1.6 | 0.00 | 4.01 | 4.01 | 90 | 1018.5 |
| 20260502021159 | 12 | 8 | 9.7 | 12.9 | 0.00 | 4.01 | 4.01 | 90 | 1018.5 |
| 20260502020655 | 12 | 352 | 6.4 | 9.7 | 0.00 | 4.01 | 4.01 | 90 | 1018.2 |
| 20260502020152 | 12 | 349 | 6.4 | 9.7 | 0.00 | 4.01 | 4.01 | 91 | 1018.2 |
| 20260502015651 | 12 | 221 | 3.2 | 4.8 | 0.00 | 4.01 | 4.01 | 92 | 1018.2 |
| 20260502015146 | 12 | 359 | 6.4 | 9.7 | 0.00 | 4.01 | 4.01 | 93 | 1018.2 |
| 20260502014644 | 12 | 346 | 4.8 | 4.8 | 0.00 | 4.01 | 4.01 | 94 | 1018.2 |
| 20260502014141 | 12 | 28 | 0.0 | 1.6 | 0.00 | 4.01 | 4.01 | 94 | 1017.5 |
| 20260502013637 | 12 | 352 | 4.8 | 4.8 | 0.00 | 4.01 | 4.01 | 94 | 1017.9 |
| 20260502013132 | 12 | 345 | 8.0 | 9.7 | 0.00 | 4.01 | 4.01 | 95 | 1017.5 |
| 20260502012630 | 12 | 2 | 9.7 | 11.3 | 0.00 | 4.01 | 4.01 | 95 | 1017.9 |
| 20260502012128 | 12 | 358 | 9.7 | 11.3 | 0.00 | 4.01 | 4.01 | 95 | 1017.5 |
| 20260502011624 | 12 | 9 | 4.8 | 8.0 | 0.00 | 4.01 | 4.01 | 95 | 1017.2 |
| 20260502011120 | 12 | 48 | 8.0 | 11.3 | 0.00 | 4.01 | 4.01 | 95 | 1017.2 |
| 20260502010618 | 12 | 355 | 9.7 | 11.3 | 0.00 | 4.01 | 4.01 | 95 | 1017.2 |